Station AUGA2 - Augustine Island, AK Image indicating link to RSS feed of recent meteorological observations for station AUGA2


Conditions at AUGA2 as of
(12:30 pm AKDT)
2030 GMT on 04/23/2024:
     

Click on the graph icon in the table below to see a time series plot of the last five days of that observation.

5-day plot - Wind Direction Wind Direction (WDIR): E ( 80 deg true )
5-day plot - Wind Speed Wind Speed (WSPD): 10 kts
5-day plot - Wind Gust Wind Gust (GST): 12 kts
5-day plot - Atmospheric Pressure Atmospheric Pressure (PRES):29.93 in
5-day plot - Air Temperature Air Temperature (ATMP): 38.8 °F
5-day plot - Wind Chill Wind Chill (CHILL): 31.6 °F
5-day plot - Wind Speed at 10 Meters Wind Speed at 10 meters (WSPD10M): 10 kts
5-day plot - Wind Speed at 20 Meters Wind Speed at 20 meters (WSPD20M): 12 kts
5-day plot -  Wind Speed, Wind Gust and Atmospheric Pressure Combined plot of Wind Speed, Gust, and Air Pressure
Continuous Winds
TIME
(AKDT)
5-day plot - Wind Direction WDIR 5-day plot - Wind Speed WSPD
12:30 pmENE ( 78 deg ) 10 kts
12:20 pmENE ( 77 deg ) 10 kts
12:10 pmENE ( 74 deg ) 10 kts
12:00 pmENE ( 64 deg ) 10 kts
11:50 amENE ( 67 deg ) 9 kts
11:40 amENE ( 66 deg ) 11 kts
 
Peak gust during the measurement hour
TIME
(AKDT)
5-day plot - Gust Direction GDR 5-day plot - Gust Speed GST
11:31 amENE ( 70 deg ) 14 kts
Previous observations
TIME
(AKDT)
5-day plot - Wind Direction
WDIR
 
5-day plot - Wind Speed
WSPD
kts
5-day plot - Wind Gust
GST
kts
5-day plot - Wave Height
WVHT
ft
5-day plot - Dominant Wave Period
DPD
sec
5-day plot - Average Wave Period
APD
sec
5-day plot - Mean Wave Direction
MWD
 
5-day plot - Atmospheric Pressure
PRES
in
5-day plot - Pressure Tendency
PTDY
in
5-day plot - Air Temperature
ATMP
°F
5-day plot - Water Temperature
WTMP
°F
5-day plot - Dew Point
DEWP
°F
5-day plot - Salinity
SAL
psu
5-day plot - Visibility
VIS
nmi
5-day plot - Tide (above MLLW)
TIDE
ft
2024-04-23 12:00 pmENE 10 13----29.94+0.00 38.7-----
2024-04-23 11:30 amENE 11 13----29.94- 38.5-----
2024-04-23 11:00 amENE 13 16----29.94-0.01 38.3-----
2024-04-23 10:30 am NE 16 19----29.94- 38.3-----
2024-04-23 10:00 amENE 15 18----29.94-0.01 37.9-----
2024-04-23 09:30 amENE 15 18----29.94- 37.9-----
2024-04-23 09:00 amENE 14 17----29.94-0.02 37.9-----
2024-04-23 08:30 am E 11 14----29.95- 37.8-----
2024-04-23 08:00 amENE 14 19----29.95-0.02 38.1-----
2024-04-23 07:30 am E 8 10----29.96- 38.1-----
2024-04-23 07:00 amENE 10 13----29.96-0.02 38.1-----
2024-04-23 06:30 amENE 9 10----29.96- 37.8-----
2024-04-23 06:00 amENE 10 13----29.97-0.03 37.9-----
2024-04-23 05:30 amENE 11 13----29.97- 38.1-----
2024-04-23 05:00 am E 11 13----29.97-0.03 38.5-----
2024-04-23 04:30 am E 11 13----29.98- 38.5-----
2024-04-23 04:00 am E 8 10----29.98-0.04 38.5-----
2024-04-23 03:30 amESE 2 4----29.99- 38.1-----
2024-04-23 03:00 am E 5 7----30.00-0.03 37.9-----
2024-04-23 02:30 amENE 6 8----30.00- 37.8-----
2024-04-23 02:00 am E 2 3----30.01-0.03 37.8-----
2024-04-23 01:30 am SE 1 2----30.01- 37.9-----
2024-04-23 01:00 am SE 3 3----30.02-0.02 38.3-----
2024-04-23 12:30 amSSE 4 6----30.02- 38.5-----
2024-04-23 12:00 am S 6 7----30.03-0.01 37.9-----
2024-04-22 11:30 pmSSE 6 7----30.03- 37.9-----
2024-04-22 11:00 pmSSE 7 8----30.03-0.01 37.9-----
2024-04-22 10:30 pm SE 8 9----30.03- 38.1-----
2024-04-22 10:00 pm SE 7 8----30.04-0.01 37.8-----
2024-04-22 09:30 pmESE 11 14----30.04- 38.3-----
2024-04-22 09:00 pmESE 9 11----30.04-0.02 38.1-----
2024-04-22 08:30 pmESE 9 11----30.04- 38.3-----
2024-04-22 08:00 pm E 9 12----30.04-0.03 38.1-----
2024-04-22 07:30 pm E 7 10----30.05- 38.3-----
2024-04-22 07:00 pmESE 5 6----30.05-0.04 38.5-----
2024-04-22 06:30 pm E 6 8----30.06- 38.7-----
2024-04-22 06:00 pm E 8 10----30.06-0.03 39.0-----
2024-04-22 05:30 pm E 5 6----30.07- 38.8-----
2024-04-22 05:00 pmENE 7 10----30.07-0.03 38.5-----
2024-04-22 04:30 pmENE 7 8----30.08- 38.8-----
2024-04-22 04:00 pmENE 8 10----30.09-0.01 38.1-----
2024-04-22 03:30 pmENE 7 9----30.09- 38.1-----
2024-04-22 03:00 pmENE 10 13----30.09+0.00 37.8-----
2024-04-22 02:30 pmENE 8 10----30.10- 37.8-----
2024-04-22 02:00 pmENE 7 9----30.10+0.00 37.8-----
2024-04-22 01:30 pmENE 8 10----30.11- 37.9-----
2024-04-22 01:00 pmENE 9 11----30.10+0.01 37.9-----